sat.trackr.live / text

‹ back to catalog

STARLINK-11608 [DTC]

NORAD 63275 · 2025-053L

PAYLOAD ACTIVE UNKNOWN

§ Identity

Operator
Country
US
Launch date
2025-03-15
Launch site
AFETR
Launch vehicle
Mass (kg)
RCS (m²)

Purposes: comms

External: N2YO · Heavens-Above · Gunter

§ Orbital elements

Epoch: 2026-05-25T00:03:57.154176Z

Period
91.67 min
Inclination
43.0016°
Eccentricity
0.0001510
Mean motion
15.70877204 rev/d
Perigee alt
355.4 km
Apogee alt
357.4 km
Semi-major
6,734.5 km
B*
1.5139e-3
RAAN
12.0541°
Arg perigee
268.9103°
Mean anomaly
91.1591°
Rev number
6,966

§ Raw data

STARLINK-11608 [DTC]1 63275U 25053L   26145.00274484  .00198833  00000+0  15139-2 0  99972 63275  43.0016  12.0541 0001510 268.9103  91.1591 15.70877204 69662

JSON: /api/v1/satellites/63275 · /tle

For live sub-satellite position, see the globe view (requires WebGL).

§ Visibility from observer

Set your observer location to see the next 7 days of passes ≥ 10°. The values pass through the URL so the page stays shareable.

No JS? Fill the form by hand. The geolocation button needs JavaScript.